This demonstration page uses our WeatherBlox Daily Observations layout. Learn more.

Left ArrowRight Arrow

41.86663, -103.66717

Hourly Observations for March 22, 2020

Temp ( °F °C ) Dew Point ( °F °C ) Humidity (%) Winds ( mph kmh ) Pressure ( in mb ) Visibility ( mi km ) Precip ( " mm )
12:53 am 00:53 Clear 37 2.8 27 -2.8 67 67 SE 10 17 30.00 1016 10 16 N/A
1:53 am 01:53 Cloudy 33 0.6 28 -2.2 82 82 E 5 7 30.00 1016 10 16 N/A
2:53 am 02:53 Mostly Cloudy 34 1.1 26 -3.3 73 73 E 7 11 29.96 1015 10 16 N/A
3:53 am 03:53 Mostly Cloudy 33 0.6 26 -3.3 75 75 N N/A 29.94 1014 10 16 N/A
4:53 am 04:53 Partly Cloudy 29 -1.7 26 -3.3 89 89 NNW 6 9 29.94 1014 10 16 N/A
5:53 am 05:53 Mostly Clear 29 -1.7 25 -3.9 85 85 NNW 5 7 29.95 1014 10 16 N/A
6:53 am 06:53 Sunny 27 -2.8 24 -4.4 89 89 N 6 9 29.96 1015 10 16 N/A
7:53 am 07:53 Sunny 33 0.6 27 -2.8 78 78 WNW 5 7 29.95 1014 10 16 N/A
8:53 am 08:53 Sunny 36 2.2 30 -1.1 79 79 NW 3 6 29.96 1014 10 16 N/A
9:53 am 09:53 Sunny 48 8.9 32 undefined 54 54 WNW 9 15 29.93 1014 10 16 N/A
10:53 am 10:53 Sunny 51 10.6 32 undefined 48 48 W 15 24 29.95 1014 10 16 N/A
11:53 am 11:53 Mostly Sunny 52 11.1 32 undefined 47 47 W 15 24 29.96 1015 10 16 N/A
12:53 pm 12:53 Sunny 57 13.9 29 -1.7 34 34 W 20 31 29.91 1013 10 16 N/A
1:53 pm 13:53 Mostly Sunny 56 13.3 31 -0.6 39 39 W 17 28 29.90 1013 10 16 N/A
2:53 pm 14:53 Sunny 58 14.4 28 -2.2 32 32 WSW 12 19 29.88 1012 10 16 N/A
3:53 pm 15:53 Mostly Cloudy 57 13.9 31 -0.6 37 37 NW 18 30 29.89 1012 10 16 N/A
4:53 pm 16:53 Mostly Cloudy 55 12.8 29 -1.7 37 37 WNW 9 15 29.91 1013 10 16 N/A
5:24 pm 17:24 Cloudy 52 11 34 1 50 50 N 18 30 29.86 1011 10 16 N/A
5:53 pm 17:53 Mostly Cloudy 54 12.2 31 -0.6 42 42 WNW 8 13 29.93 1014 10 16 N/A
6:53 pm 18:53 Sunny 46 7.8 36 2.2 68 68 NNE 9 15 29.98 1015 10 16 N/A
7:53 pm 19:53 Mostly Cloudy 42 5.6 35 1.7 76 76 N 6 9 29.99 1016 10 16 N/A
8:53 pm 20:53 Mostly Cloudy 40 4.4 34 1.1 79 79 N N/A 30.02 1017 10 16 N/A
9:53 pm 21:53 Clear 38 3.3 32 undefined 79 79 N N/A 30.02 1017 10 16 N/A
10:53 pm 22:53 Clear 36 2.2 30 -1.1 79 79 SE 8 13 30.03 1017 10 16 N/A
11:53 pm 23:53 Clear 32 undefined 28 -2.2 85 85 ENE 6 9 30.05 1018 10 16 N/A

Powered by AerisWeather